Regional Weather Roundup
Issued by NWS

Home | Current Version | Previous Version | Text Only | Print | Product List | Glossary Off
Versions: 1 2 3 4 5 6 7 8 9 10 11 12 13 14 15 16 17 18 19 20 21 22 23 24 25 26 27 28 29 30 31 32 33 34 35 36 37 38 39 40 41 42 43 44 45 46 47 48 49 50

179
ASUS43 KOAX 180310
RWRNE

WEATHER ROUNDUP FOR NEBRASKA
NATIONAL WEATHER SERVICE OMAHA NE
900 PM CST FRI NOV 17 2017

NOTES: SATELLITE DATA IS BEING USED TO AUGMENT CLOUD COVER ABOVE
       12000 FEET.
       "FAIR" INDICATES FEW OR NO CLOUDS BELOW 12,000 FEET WITH NO
       SIGNIFICANT WEATHER AND/OR OBSTRUCTIONS TO VISIBILITY.


NEZ001>004-019>022-054>056-180400-
NEBRASKA PANHANDLE

CITY           SKY/WX    TMP DP  RH WIND       PRES   REMARKS
SCOTTSBLUFF    CLOUDY    40  33  76 N15       29.75R WCI  32
ALLIANCE       CLOUDY    38  37  97 N9        29.72R WCI  31
CHADRON        CLOUDY    38  36  92 NW7       29.77R WCI  33
GORDON         LGT RAIN  37  34  90 N7        29.74R WCI  31
KIMBALL        CLOUDY    40  34  79 NW16      29.74R WCI  31
SIDNEY         CLOUDY    40  38  93 W5        29.73R
$$

NEZ057>060-069>072-079>082-180400-
SOUTHWEST NEBRASKA

CITY           SKY/WX    TMP DP  RH WIND       PRES   REMARKS
NORTH PLATTE   CLOUDY    44  37  76 N13       29.68R
LEXINGTON      LGT RAIN  44  35  70 N15G21    29.63S
MCCOOK         PTCLDY    46  32  58 N15       29.65R
OGALLALA       LGT RAIN  42  40  92 CALM      29.69S
$$

NEZ005>010-023>029-035>040-094-180400-
NORTH CENTRAL NEBRASKA

CITY           SKY/WX    TMP DP  RH WIND       PRES   REMARKS
VALENTINE      CLOUDY    40  34  79 N8        29.76R WCI  34
AINSWORTH      CLOUDY    39  37  90 N10       29.73R WCI  32
BROKEN BOW     MOCLDY    41  37  86 N23G29    29.62F
O`NEILL        CLOUDY    40  40  98 NW5       29.71R
ORD            RAIN      42  38  85 N15       29.66R
THEDFORD       LGT RAIN  40  38  93 CALM      29.73R
$$

NEZ041-046>049-061>064-073>077-083>087-180400-
SOUTH CENTRAL NEBRASKA

CITY           SKY/WX    TMP DP  RH WIND       PRES   REMARKS
GRAND ISLAND   MOCLDY    43  36  76 N15       29.67R
AURORA         PTCLDY    44  35  71 NW15      29.65R
HASTINGS       MOCLDY    45  34  65 N20G31    29.59R
HEBRON         CLOUDY    49  37  63 N14G20    29.55R
HOLDREGE       CLOUDY    44  35  70 N22G28    29.59S
KEARNEY        LGT RAIN  43  35  73 N20       29.62R
YORK           PTCLDY    45  37  76 N16G23    29.58R
$$

NEZ011>018-030>034-042>045-180400-
NORTHEAST NEBRASKA

CITY           SKY/WX    TMP DP  RH WIND       PRES   REMARKS
NORFOLK        MOCLDY    43  38  82 N16       29.60F
ALBION         CLOUDY    44  36  75 N13       29.69R
BLAIR          PTCLDY    49  41  72 N14       29.56S
COLUMBUS       PTCLDY    44  37  76 N14       29.61F
FREMONT        CLOUDY    48  39  73 N7        29.57F
TEKAMAH        LGT RAIN  48  40  73 N12       29.59R
WAYNE          LGT RAIN  44  41  91 N10       29.64R
$$

NEZ050>053-065>068-078-088>093-180400-
SOUTHEAST NEBRASKA

CITY           SKY/WX    TMP DP  RH WIND       PRES   REMARKS
LINCOLN        CLOUDY    49  38  65 N15       29.57S
OMAHA EPPLEY   MOCLDY    48  39  71 N10       29.54F
BEATRICE       PTCLDY    51  40  67 N13       29.53R
FALLS CITY     CLOUDY    56  55  97 N6        29.49R FOG
NEBRASKA CITY  CLOUDY    56  56  98 NE9       29.51F FOG
PLATTSMOUTH    CLOUDY    52  48  86 N8        29.53S
$$

NEZ044-045-051>053-067-180400-
OMAHA AREA

CITY           SKY/WX    TMP DP  RH WIND       PRES   REMARKS
OMAHA EPPLEY   MOCLDY    48  39  71 N10       29.54F
BLAIR          PTCLDY    49  41  72 N14       29.56S
FREMONT        CLOUDY    48  39  73 N7        29.57F
MILLARD        PTCLDY    51  42  69 N7        29.56R
OFFUTT AFB     CLOUDY    51  43  74 NW6       29.54S
PLATTSMOUTH    CLOUDY    52  48  86 N8        29.53S
WAHOO          FAIR      47  39  74 N12       29.56S
$$




USA.gov is the U.S. government's official web portal to all federal, state and local government web resources and services.